Location: ???
(31.7971°N, 35.0653°E)
Time: 03:24:37
(UTC+00:00)

Daily predictions for brighter satellites

Satellite Brightness Start Highest point End
(mag) Time Altitude Azimuth Time Altitude Azimuth Time Altitude Azimuth
ADEOS II 4.0 00:12:40 10° N 00:14:40 24° N 00:14:40 24° N
ATLAS 3B R/B 3.0 00:22:21 61° ENE 00:22:21 61° ENE 00:28:02 10° NE
ARIANE 5 R/B 4.1 00:18:01 10° NNE 00:20:42 31° NNE 00:20:42 31° NNE
IDEFIX/ARIANE 42P 3.8 00:23:18 10° NNE 00:27:41 36° E 00:27:41 36° E
USA 267 3.3 00:24:12 10° NE 00:30:06 71° N 00:30:06 71° N
Cosmos 2227 Rocket 4.0 00:33:30 20° NNW 00:33:30 20° NNW 00:35:42 10° N
Cosmos 1300 Rocket 4.0 01:01:48 10° N 01:06:03 56° E 01:06:05 56° E
Cosmos 1818 4.4 01:02:45 10° NNW 01:08:01 48° ENE 01:13:13 10° SE
ATLAS 5 CENTAUR R/B 2.6 01:10:34 54° S 01:11:36 69° SE 01:14:42 10° NE
CENTAUR R/B 3.6 01:12:47 27° NW 01:12:51 27° NW 01:18:22 10° N
SL-16 R/B 2.0 01:08:03 10° NNW 01:13:44 79° WSW 01:19:23 10° SSE
MSX 3.9 01:08:49 10° NNE 01:14:36 74° ESE 01:17:06 35° S
Cosmos 1867 3.5 01:15:42 65° WNW 01:15:51 66° WNW 01:21:17 10° NNE
Cosmos 1378 Rocket 4.3 01:15:41 36° SE 01:17:00 50° E 01:21:14 10° NNE
PSLV R/B 4.0 01:13:23 10° NNE 01:17:43 59° E 01:18:40 47° SSE
BREEZE-M DEB (TANK) 3.1 01:16:57 14° NW 01:20:36 61° NE 01:24:59 10° ESE
Cosmos 1269 Rocket 4.1 01:16:00 10° NNW 01:21:19 76° ENE 01:26:36 10° SSE
Lacrosse 5 4.3 01:20:01 10° SSE 01:23:07 16° ESE 01:26:13 10° E
Cosmos 1092 Rocket 4.1 01:19:09 19° S 01:23:51 76° E 01:30:10 10° N
Meteor 1-13 Rocket 4.1 01:23:29 53° SW 01:24:42 69° W 01:30:20 10° N
Okean 2 Rocket 3.4 01:20:26 10° NNW 01:24:05 53° NW 01:24:05 53° NW
Gbstr 26 Del rocket 3.9 01:24:31 49° W 01:26:06 65° NW 01:31:38 10° NE
Cosmos 2151 Rocket 3.5 01:22:26 10° N 01:26:50 84° E 01:28:30 38° S
Geosat 4.3 01:21:55 10° NNE 01:26:55 65° ESE 01:29:10 32° S
ATLAS 5 CENTAUR R/B 3.5 01:26:12 10° NNW 01:32:05 48° ENE 01:38:41 10° SE
Cosmos 2026 Rocket 4.4 01:26:25 10° S 01:32:25 62° E 01:38:23 10° NNE
Nadezhda 4 Rocket 4.2 01:33:49 40° SW 01:35:34 51° W 01:41:43 10° N
Cosmos 2263 Rocket 2.1 01:33:44 40° SSW 01:35:48 76° WNW 01:41:30 10° NNE
CZ-2C R/B 2.7 01:33:01 10° NNE 01:37:32 60° E 01:41:26 14° S
CZ-4B R/B 1.4 01:40:56 36° SSE 01:42:17 89° ENE 01:45:46 10° N
Meteor 1-23 Rocket 4.2 01:38:28 16° S 01:43:06 90° W 01:48:53 10° N
STARLINK-1167 4.4 01:53:34 22° S 01:55:26 39° SE 01:58:55 10° ENE
Meteor 1-15 Rocket 4.4 01:50:12 10° N 01:55:50 75° E 02:01:32 10° SSE
STARLINK-1168 4.5 01:54:38 21° S 01:56:28 36° SE 01:59:47 10° ENE
Cosmos 1689 Rocket 2.6 01:53:54 10° SSE 01:56:50 59° ENE 01:59:48 10° N
STARLINK-1164 4.4 01:56:34 21° S 01:58:29 39° SE 02:01:51 10° ENE
STARLINK-1182 4.3 01:58:31 21° S 02:00:31 41° SE 02:03:55 10° ENE
Cosmos 1437 Rocket 2.7 01:58:07 13° S 02:01:40 85° W 02:05:45 10° N
Cosmos 1975 Rocket 3.7 01:58:50 10° S 02:03:04 56° E 02:07:21 10° NNE
STARLINK-1172 4.1 02:02:42 20° SSW 02:04:51 46° SE 02:08:19 10° NE
Okean 1 Rocket 2.9 02:01:39 10° N 02:06:04 81° W 02:10:27 10° S
STARLINK-1163 3.9 02:04:23 21° SSW 02:06:39 55° SE 02:10:18 10° NE
CZ-4B R/B 4.3 02:02:25 10° NNE 02:06:41 45° E 02:11:00 10° S
STARLINK-1145 4.0 02:04:43 20° SSW 02:06:57 49° SE 02:10:26 10° NE
IDEFIX/ARIANE 42P 3.8 02:03:32 10° NNW 02:07:22 21° WNW 02:08:29 20° W
STARLINK-1149 3.8 02:05:34 20° SSW 02:07:59 58° SE 02:11:44 10° NE
STARLINK-1161 3.9 02:06:44 19° SSW 02:09:03 52° SE 02:12:34 10° NE
STARLINK-1160 3.8 02:08:47 19° SSW 02:11:10 56° SE 02:14:43 10° NE
SeaSat 1 4.1 02:07:49 10° SE 02:12:19 37° ENE 02:16:49 10° N
ATLAS 3B R/B 4.0 02:09:36 16° W 02:12:36 21° NW 02:17:25 10° N
STARLINK-1179 2.8 02:11:24 28° SW 02:12:54 88° SE 02:16:01 10° NE
STARLINK-1176 2.8 02:11:51 27° SW 02:13:22 89° ESE 02:16:28 10° NE
STARLINK-1173 2.8 02:14:15 24° SW 02:15:56 88° SE 02:19:02 10° NE
STARLINK-1136 2.8 02:14:42 24° SW 02:16:24 89° ESE 02:19:30 10° NE
Cosmos 1655 Rocket 4.5 02:12:52 10° S 02:19:10 66° E 02:25:25 10° NNE
Meteor 1-31 Rocket 2.7 02:18:40 10° N 02:22:36 83° WNW 02:26:29 10° SSW
STARLINK-1183 2.8 02:20:50 19° SW 02:22:55 90° WSW 02:26:02 10° NE
STARLINK-43 3.2 02:19:19 10° NW 02:23:01 85° SW 02:26:42 10° SE
STARLINK-1181 2.8 02:21:16 19° SW 02:23:23 89° NNW 02:26:28 10° NE
STARLINK-1196 2.8 02:21:43 19° SW 02:23:50 87° NW 02:26:56 10° NE
STARLINK-1186 2.7 02:22:08 18° SW 02:24:15 86° NW 02:27:22 10° NE
STARLINK-1185 2.8 02:22:34 18° SW 02:24:43 85° NW 02:27:50 10° NE
STARLINK-1175 2.7 02:23:00 18° SW 02:25:09 84° NW 02:28:14 10° NE
STARLINK-1147 2.8 02:23:26 18° SW 02:25:37 83° NW 02:28:44 10° NE
STARLINK-1146 2.8 02:23:52 18° SW 02:26:05 82° NW 02:29:11 10° NE
STARLINK-1152 2.8 02:24:18 17° SW 02:26:31 80° NW 02:29:38 10° NE
STARLINK-1195 2.7 02:24:44 17° SW 02:26:57 79° NW 02:30:03 10° NE
STARLINK-1137 2.8 02:25:10 17° SW 02:27:25 78° NW 02:30:32 10° NE
Aureole 3 Rocket 2.8 02:24:09 10° N 02:27:46 64° E 02:30:48 10° SSE
STARLINK-1142 2.8 02:25:36 17° SW 02:27:51 77° NW 02:30:57 10° NE
STARLINK-1127 2.8 02:26:02 17° SW 02:28:19 76° NW 02:31:25 10° NE
STARLINK-1184 2.8 02:26:28 16° SW 02:28:46 75° NW 02:31:53 10° NE
STARLINK-1193 2.8 02:26:54 16° SW 02:29:12 74° NW 02:32:18 10° NE
STARLINK-1194 2.8 02:27:20 16° SW 02:29:40 73° NW 02:32:46 10° NE
Cosmos 1943 3.2 02:24:48 10° NNW 02:30:32 85° WSW 02:36:12 10° SSE
ADEOS 4.3 02:26:12 10° N 02:30:49 33° WNW 02:35:24 10° SW
ALOS 2.8 02:26:20 10° NNE 02:30:58 62° E 02:35:33 10° S
FENGYUN 3A 4.0 02:29:43 10° NNE 02:35:05 69° ESE 02:40:25 10° S
Shenzhou-11 Module 4.1 02:34:22 10° NW 02:35:46 14° NNW 02:37:11 10° NNE
Delta 142 4.3 02:35:21 11° W 02:41:07 51° SSW 02:45:46 10° ESE
USA 234 3.9 02:36:44 10° ESE 02:43:09 62° NE 02:49:35 10° NW
Cosmos 1378 4.4 02:48:17 10° SW 02:51:11 21° WNW 02:54:06 10° NNW
Cosmos 1766 3.4 02:48:07 10° NNW 02:51:53 51° W 02:55:37 10° S
Cosmos 1371 Rocket 4.1 02:50:23 10° SSW 02:55:44 85° WNW 03:01:08 10° NNE
Cosmos 1844 Rocket 2.7 02:51:19 10° SSW 02:56:57 78° WNW 03:02:38 10° NNE
